Tracking 35331 objects as of 14-Sep-2026
HD Live streaming from Space Station
objects crossing your sky now

SL-12 R/B(2)

Track SL-12 R/B(2) now!


NORAD ID: 28256
Int'l Code: 2004-010F
Launch date: March 27, 2004
Source: Commonwealth of Independent States (former USSR) (CIS)
Launch site: TYURATAM MISSILE AND SPACE COMPLEX (TTMTR)

Note: This is a ROCKET BODY
Your satellite tracking list
Your tracking list is empty




NASA's NSSDC Master Catalog

Two Line Element Set (TLE):
1 28256U 04010F   26217.62305138  .00000099  00000-0  00000+0 0  9991
2 28256  13.7771  20.5523 0026033  13.8659 344.1856  1.00121003 81158
Source of the keplerian elements: AFSPC